Location: Corcelles
(46.1547°N, 4.7234°E)
Time: 10:58:56
(UTC+00:00)

Lacrosse 5 - Pass Details

Date: 14 July 2020
Orbit: 717 x 720 km, 57.0° (Epoch: 04 August)

Event Time Altitude Azimuth Distance (km) Brightness Sun altitude
Exits shadow 00:10:41 44° 235° (SW) 992 2.2 -22.0°
Maximum altitude 00:12:20 85° 321° (NW) 725 1.8 -22.0°
Drops below altitude 10° 00:17:26 10° 50° (NE) 2,207 5.0 -21.9°
Sets 00:19:49 0° 51° (NE) 3,131 5.9 -21.8°
